Time,TemperatureF,DewpointF,PressureIn,WindDirection,WindDirectionDegrees,WindSpeedMPH,WindSpeedGustMPH,Humidity,HourlyPrecipIn,Conditions,Clouds,dailyrainin,SoftwareType,DateUTC
2013-08-31 00:03:00,61.2,56.7,29.86,West,278,0.0,0.0,85,0.00,,,0.00,Wunderground v.1.15,2013-08-31 07:03:00,
2013-08-31 00:09:00,61.2,57.0,29.86,West,278,0.0,0.0,86,0.00,,,0.00,Wunderground v.1.15,2013-08-31 07:09:00,
2013-08-31 00:14:00,61.2,57.0,29.86,West,278,0.0,0.0,86,0.00,,,0.00,Wunderground v.1.15,2013-08-31 07:14:00,
2013-08-31 00:20:00,61.2,57.0,29.86,West,278,0.0,0.0,86,0.00,,,0.00,Wunderground v.1.15,2013-08-31 07:20:00,
2013-08-31 00:25:00,61.2,57.0,29.86,West,278,0.0,0.0,86,0.00,,,0.00,Wunderground v.1.15,2013-08-31 07:25:00,
2013-08-31 00:30:00,61.2,57.0,29.86,West,278,0.0,0.0,86,0.00,,,0.00,Wunderground v.1.15,2013-08-31 07:30:00,
2013-08-31 00:36:00,61.0,56.8,29.86,West,278,0.0,0.0,86,0.00,,,0.00,Wunderground v.1.15,2013-08-31 07:36:00,
2013-08-31 00:41:00,61.0,56.8,29.86,West,278,0.0,0.0,86,0.00,,,0.00,Wunderground v.1.15,2013-08-31 07:41:00,
2013-08-31 00:47:00,61.0,56.8,29.86,West,278,0.0,0.0,86,0.00,,,0.00,Wunderground v.1.15,2013-08-31 07:47:00,
2013-08-31 00:52:00,61.0,56.8,29.86,West,278,0.0,0.0,86,0.00,,,0.00,Wunderground v.1.15,2013-08-31 07:52:00,
2013-08-31 00:57:00,61.0,56.8,29.86,West,278,0.0,0.0,86,0.00,,,0.00,Wunderground v.1.15,2013-08-31 07:57:00,
2013-08-31 01:03:00,60.9,56.7,29.85,West,278,0.0,0.0,86,0.00,,,0.00,Wunderground v.1.15,2013-08-31 08:03:00,
2013-08-31 01:09:00,60.7,56.5,29.85,West,278,0.0,0.0,86,0.00,,,0.00,Wunderground v.1.15,2013-08-31 08:09:00,
2013-08-31 01:15:00,60.7,56.8,29.85,West,278,0.0,0.0,87,0.00,,,0.00,Wunderground v.1.15,2013-08-31 08:15:00,
2013-08-31 01:20:00,60.5,56.6,29.85,West,278,0.0,0.0,87,0.00,,,0.00,Wunderground v.1.15,2013-08-31 08:20:00,
2013-08-31 01:25:00,60.5,56.6,29.85,West,278,0.0,0.0,87,0.00,,,0.00,Wunderground v.1.15,2013-08-31 08:25:00,
2013-08-31 01:31:00,60.4,56.5,29.85,West,278,0.0,0.0,87,0.00,,,0.00,Wunderground v.1.15,2013-08-31 08:31:00,
2013-08-31 01:36:00,60.2,56.3,29.85,West,278,0.0,0.0,87,0.00,,,0.00,Wunderground v.1.15,2013-08-31 08:36:00,
2013-08-31 01:41:00,60.2,56.3,29.85,West,278,0.0,0.0,87,0.00,,,0.00,Wunderground v.1.15,2013-08-31 08:41:00,
2013-08-31 01:47:00,60.2,56.6,29.85,West,278,0.0,0.0,88,0.00,,,0.00,Wunderground v.1.15,2013-08-31 08:47:00,
2013-08-31 01:52:00,60.1,56.5,29.85,West,278,0.0,0.0,88,0.00,,,0.00,Wunderground v.1.15,2013-08-31 08:52:00,
2013-08-31 01:57:00,60.1,56.5,29.85,West,278,0.0,0.0,88,0.00,,,0.00,Wunderground v.1.15,2013-08-31 08:57:00,
2013-08-31 02:02:00,60.1,56.5,29.85,West,278,0.0,0.0,88,0.00,,,0.00,Wunderground v.1.15,2013-08-31 09:02:00,
2013-08-31 02:07:00,60.1,56.5,29.85,West,278,0.0,0.0,88,0.00,,,0.00,Wunderground v.1.15,2013-08-31 09:07:00,
2013-08-31 02:12:00,60.1,56.5,29.85,West,278,0.0,0.0,88,0.00,,,0.00,Wunderground v.1.15,2013-08-31 09:12:00,
2013-08-31 02:17:00,59.9,56.3,29.84,West,278,0.0,0.0,88,0.00,,,0.00,Wunderground v.1.15,2013-08-31 09:17:00,
2013-08-31 02:22:00,59.9,56.3,29.84,West,278,0.0,0.0,88,0.00,,,0.00,Wunderground v.1.15,2013-08-31 09:22:00,
2013-08-31 02:27:00,59.9,56.3,29.84,West,278,0.0,0.0,88,0.00,,,0.00,Wunderground v.1.15,2013-08-31 09:27:00,
2013-08-31 02:32:00,59.8,56.6,29.84,West,278,0.0,0.0,89,0.00,,,0.00,Wunderground v.1.15,2013-08-31 09:32:00,
2013-08-31 02:37:00,59.8,56.6,29.84,West,278,0.0,0.0,89,0.00,,,0.00,Wunderground v.1.15,2013-08-31 09:37:00,
2013-08-31 02:42:00,59.6,56.4,29.84,West,278,0.0,0.0,89,0.00,,,0.00,Wunderground v.1.15,2013-08-31 09:42:00,
2013-08-31 02:47:00,59.6,56.4,29.83,West,278,0.0,0.0,89,0.00,,,0.00,Wunderground v.1.15,2013-08-31 09:47:00,
2013-08-31 02:52:00,59.5,56.3,29.83,West,278,0.0,0.0,89,0.00,,,0.00,Wunderground v.1.15,2013-08-31 09:52:00,
2013-08-31 02:57:00,59.5,56.3,29.83,West,278,0.0,0.0,89,0.00,,,0.00,Wunderground v.1.15,2013-08-31 09:57:00,
2013-08-31 03:02:00,59.3,56.1,29.83,West,278,0.0,0.0,89,0.00,,,0.00,Wunderground v.1.15,2013-08-31 10:02:00,
2013-08-31 03:07:00,59.3,56.1,29.83,West,278,0.0,0.0,89,0.00,,,0.00,Wunderground v.1.15,2013-08-31 10:07:00,
2013-08-31 03:12:00,59.3,56.1,29.83,West,278,0.0,0.0,89,0.00,,,0.00,Wunderground v.1.15,2013-08-31 10:12:00,
2013-08-31 03:17:00,59.3,56.1,29.83,West,278,0.0,0.0,89,0.00,,,0.00,Wunderground v.1.15,2013-08-31 10:17:00,
2013-08-31 03:22:00,59.3,56.4,29.83,West,278,0.0,0.0,90,0.00,,,0.00,Wunderground v.1.15,2013-08-31 10:22:00,
2013-08-31 03:27:00,59.3,56.4,29.83,West,278,0.0,0.0,90,0.00,,,0.00,Wunderground v.1.15,2013-08-31 10:27:00,
2013-08-31 03:32:00,59.3,56.4,29.83,West,278,0.0,0.0,90,0.00,,,0.00,Wunderground v.1.15,2013-08-31 10:32:00,
2013-08-31 03:37:00,59.3,56.4,29.83,West,278,0.0,0.0,90,0.00,,,0.00,Wunderground v.1.15,2013-08-31 10:37:00,
2013-08-31 03:42:00,59.5,56.6,29.83,West,278,0.0,0.0,90,0.00,,,0.00,Wunderground v.1.15,2013-08-31 10:42:00,
2013-08-31 03:47:00,59.6,56.7,29.83,West,278,0.0,0.0,90,0.00,,,0.00,Wunderground v.1.15,2013-08-31 10:47:00,
2013-08-31 03:52:00,59.8,56.9,29.83,West,278,0.0,0.0,90,0.00,,,0.00,Wunderground v.1.15,2013-08-31 10:52:00,
2013-08-31 03:57:00,59.8,56.9,29.83,West,278,0.0,0.0,90,0.00,,,0.00,Wunderground v.1.15,2013-08-31 10:57:00,
2013-08-31 04:02:00,59.9,57.0,29.83,West,278,0.0,0.0,90,0.00,,,0.00,Wunderground v.1.15,2013-08-31 11:02:00,
2013-08-31 04:07:00,59.8,56.9,29.83,West,278,0.0,0.0,90,0.00,,,0.00,Wunderground v.1.15,2013-08-31 11:07:00,
2013-08-31 04:12:00,59.8,56.9,29.83,West,278,0.0,0.0,90,0.00,,,0.00,Wunderground v.1.15,2013-08-31 11:12:00,
2013-08-31 04:17:00,59.6,56.7,29.83,West,278,0.0,0.0,90,0.00,,,0.00,Wunderground v.1.15,2013-08-31 11:17:00,
2013-08-31 04:22:00,59.5,56.6,29.83,West,278,0.0,0.0,90,0.00,,,0.00,Wunderground v.1.15,2013-08-31 11:22:00,
2013-08-31 04:27:00,59.3,56.4,29.83,West,278,0.0,0.0,90,0.00,,,0.00,Wunderground v.1.15,2013-08-31 11:27:00,
2013-08-31 04:32:00,59.2,56.3,29.83,West,278,0.0,0.0,90,0.00,,,0.00,Wunderground v.1.15,2013-08-31 11:32:00,
2013-08-31 04:37:00,59.0,56.1,29.83,West,278,0.0,0.0,90,0.00,,,0.00,Wunderground v.1.15,2013-08-31 11:37:00,
2013-08-31 04:42:00,58.9,56.0,29.83,West,278,0.0,0.0,90,0.00,,,0.00,Wunderground v.1.15,2013-08-31 11:42:00,
2013-08-31 04:47:00,58.7,56.1,29.83,West,278,0.0,0.0,91,0.00,,,0.00,Wunderground v.1.15,2013-08-31 11:47:00,
2013-08-31 04:53:00,58.7,56.1,29.83,West,278,0.0,0.0,91,0.00,,,0.00,Wunderground v.1.15,2013-08-31 11:53:00,
2013-08-31 04:58:00,58.7,56.1,29.83,West,278,0.0,0.0,91,0.00,,,0.00,Wunderground v.1.15,2013-08-31 11:58:00,
2013-08-31 05:03:00,58.6,56.0,29.83,West,278,0.0,0.0,91,0.00,,,0.00,Wunderground v.1.15,2013-08-31 12:03:00,
2013-08-31 05:08:00,58.4,55.8,29.83,West,278,0.0,0.0,91,0.00,,,0.00,Wunderground v.1.15,2013-08-31 12:08:00,
2013-08-31 05:13:00,58.3,55.7,29.83,West,278,0.0,0.0,91,0.00,,,0.00,Wunderground v.1.15,2013-08-31 12:13:00,
2013-08-31 05:18:00,58.3,55.7,29.84,West,278,0.0,0.0,91,0.00,,,0.00,Wunderground v.1.15,2013-08-31 12:18:00,
2013-08-31 05:23:00,58.3,56.0,29.84,West,278,0.0,0.0,92,0.00,,,0.00,Wunderground v.1.15,2013-08-31 12:23:00,
2013-08-31 05:28:00,58.3,56.0,29.84,West,278,0.0,0.0,92,0.00,,,0.00,Wunderground v.1.15,2013-08-31 12:28:00,
2013-08-31 05:33:00,58.3,56.0,29.84,West,278,0.0,0.0,92,0.00,,,0.00,Wunderground v.1.15,2013-08-31 12:33:00,
2013-08-31 05:38:00,58.3,56.0,29.84,West,278,0.0,0.0,92,0.00,,,0.00,Wunderground v.1.15,2013-08-31 12:38:00,
2013-08-31 05:43:00,58.3,56.0,29.84,West,278,0.0,0.0,92,0.00,,,0.00,Wunderground v.1.15,2013-08-31 12:43:00,
2013-08-31 05:48:00,58.0,55.7,29.84,West,278,0.0,0.0,92,0.00,,,0.00,Wunderground v.1.15,2013-08-31 12:48:00,
2013-08-31 05:53:00,57.8,55.5,29.84,West,278,0.0,0.0,92,0.00,,,0.00,Wunderground v.1.15,2013-08-31 12:53:00,
2013-08-31 05:58:00,57.8,55.5,29.84,West,278,0.0,0.0,92,0.00,,,0.00,Wunderground v.1.15,2013-08-31 12:58:00,
2013-08-31 06:03:00,57.6,55.3,29.84,West,278,0.0,0.0,92,0.00,,,0.00,Wunderground v.1.15,2013-08-31 13:03:00,
2013-08-31 06:08:00,57.6,55.3,29.84,West,278,0.0,0.0,92,0.00,,,0.00,Wunderground v.1.15,2013-08-31 13:08:00,
2013-08-31 06:13:00,57.8,55.5,29.84,West,278,0.0,0.0,92,0.00,,,0.00,Wunderground v.1.15,2013-08-31 13:13:00,
2013-08-31 06:18:00,58.1,56.1,29.85,West,278,0.0,0.0,93,0.00,,,0.00,Wunderground v.1.15,2013-08-31 13:18:00,
2013-08-31 06:23:00,58.3,56.3,29.85,West,278,0.0,0.0,93,0.00,,,0.00,Wunderground v.1.15,2013-08-31 13:23:00,
2013-08-31 06:28:00,58.6,56.6,29.85,West,278,0.0,0.0,93,0.00,,,0.00,Wunderground v.1.15,2013-08-31 13:28:00,
2013-08-31 06:33:00,59.0,57.0,29.84,West,278,0.0,0.0,93,0.00,,,0.00,Wunderground v.1.15,2013-08-31 13:33:00,
2013-08-31 06:38:00,59.2,57.2,29.84,West,278,0.0,0.0,93,0.00,,,0.00,Wunderground v.1.15,2013-08-31 13:38:00,
2013-08-31 06:43:00,59.2,56.9,29.84,West,278,0.0,0.0,92,0.00,,,0.00,Wunderground v.1.15,2013-08-31 13:43:00,
2013-08-31 06:48:00,59.2,56.9,29.85,West,278,0.0,0.0,92,0.00,,,0.00,Wunderground v.1.15,2013-08-31 13:48:00,
2013-08-31 06:53:00,59.0,56.7,29.85,West,278,0.0,0.0,92,0.00,,,0.00,Wunderground v.1.15,2013-08-31 13:53:00,
2013-08-31 06:58:00,59.2,56.9,29.85,West,278,0.0,0.0,92,0.00,,,0.00,Wunderground v.1.15,2013-08-31 13:58:00,
2013-08-31 07:03:00,59.3,57.0,29.85,West,278,0.0,0.0,92,0.00,,,0.00,Wunderground v.1.15,2013-08-31 14:03:00,
2013-08-31 07:08:00,59.5,57.2,29.85,West,278,0.0,0.0,92,0.00,,,0.00,Wunderground v.1.15,2013-08-31 14:08:00,
2013-08-31 07:13:00,59.8,57.5,29.85,West,278,0.0,0.0,92,0.00,,,0.00,Wunderground v.1.15,2013-08-31 14:13:00,
2013-08-31 07:18:00,60.1,57.5,29.85,West,278,0.0,0.0,91,0.00,,,0.00,Wunderground v.1.15,2013-08-31 14:18:00,
2013-08-31 07:23:00,60.2,57.6,29.85,West,278,0.0,0.0,91,0.00,,,0.00,Wunderground v.1.15,2013-08-31 14:23:00,
2013-08-31 07:28:00,60.5,57.9,29.85,West,278,0.0,0.0,91,0.00,,,0.00,Wunderground v.1.15,2013-08-31 14:28:00,
2013-08-31 07:33:00,60.7,58.1,29.85,West,278,0.0,0.0,91,0.00,,,0.00,Wunderground v.1.15,2013-08-31 14:33:00,
2013-08-31 07:38:00,61.0,58.0,29.85,West,278,0.0,0.0,90,0.00,,,0.00,Wunderground v.1.15,2013-08-31 14:38:00,
2013-08-31 07:43:00,61.5,58.5,29.85,West,278,0.0,0.0,90,0.00,,,0.00,Wunderground v.1.15,2013-08-31 14:43:00,
2013-08-31 07:48:00,61.6,58.0,29.86,West,278,0.0,0.0,88,0.00,,,0.00,Wunderground v.1.15,2013-08-31 14:48:00,
2013-08-31 07:53:00,62.0,58.1,29.86,West,278,0.0,0.0,87,0.00,,,0.00,Wunderground v.1.15,2013-08-31 14:53:00,
2013-08-31 07:58:00,62.3,58.4,29.86,West,278,0.0,0.0,87,0.00,,,0.00,Wunderground v.1.15,2013-08-31 14:58:00,
2013-08-31 08:03:00,62.6,58.4,29.87,West,278,0.0,0.0,86,0.00,,,0.00,Wunderground v.1.15,2013-08-31 15:03:00,
2013-08-31 08:08:00,63.1,58.5,29.87,West,278,0.0,0.0,85,0.00,,,0.00,Wunderground v.1.15,2013-08-31 15:08:00,
2013-08-31 08:13:00,63.5,58.6,29.87,West,278,0.0,0.0,84,0.00,,,0.00,Wunderground v.1.15,2013-08-31 15:13:00,
2013-08-31 08:18:00,64.0,59.1,29.87,West,278,0.0,0.0,84,0.00,,,0.00,Wunderground v.1.15,2013-08-31 15:18:00,
2013-08-31 08:23:00,64.7,59.4,29.87,West,278,0.0,0.0,83,0.00,,,0.00,Wunderground v.1.15,2013-08-31 15:23:00,
2013-08-31 08:28:00,65.3,59.3,29.87,West,278,0.0,0.0,81,0.00,,,0.00,Wunderground v.1.15,2013-08-31 15:28:00,
2013-08-31 08:33:00,66.0,59.7,29.87,West,278,0.0,0.0,80,0.00,,,0.00,Wunderground v.1.15,2013-08-31 15:33:00,
2013-08-31 08:38:00,66.6,59.5,29.87,West,278,0.0,0.0,78,0.00,,,0.00,Wunderground v.1.15,2013-08-31 15:38:00,
2013-08-31 08:43:00,67.4,59.6,29.87,West,278,0.0,0.0,76,0.00,,,0.00,Wunderground v.1.15,2013-08-31 15:43:00,
2013-08-31 08:48:00,68.1,59.9,29.87,West,278,0.0,0.0,75,0.00,,,0.00,Wunderground v.1.15,2013-08-31 15:48:00,
2013-08-31 08:53:00,69.1,60.5,29.87,West,278,0.0,0.0,74,0.00,,,0.00,Wunderground v.1.15,2013-08-31 15:53:00,
2013-08-31 08:58:00,70.3,60.8,29.87,West,259,0.0,0.0,72,0.00,,,0.00,Wunderground v.1.15,2013-08-31 15:58:00,
2013-08-31 09:03:00,71.8,61.5,29.87,SE,143,0.0,0.0,70,0.00,,,0.00,Wunderground v.1.15,2013-08-31 16:03:00,
2013-08-31 09:08:00,73.9,62.7,29.87,SE,137,0.0,0.0,68,0.00,,,0.00,Wunderground v.1.15,2013-08-31 16:08:00,
2013-08-31 09:13:00,75.4,62.4,29.87,ESE,104,0.0,0.0,64,0.00,,,0.00,Wunderground v.1.15,2013-08-31 16:13:00,
2013-08-31 09:18:00,76.5,62.5,29.87,ESE,104,0.0,0.0,62,0.00,,,0.00,Wunderground v.1.15,2013-08-31 16:18:00,
2013-08-31 09:23:00,77.7,61.7,29.87,West,269,0.0,0.0,58,0.00,,,0.00,Wunderground v.1.15,2013-08-31 16:23:00,
2013-08-31 09:28:00,78.8,61.8,29.87,West,266,0.0,0.0,56,0.00,,,0.00,Wunderground v.1.15,2013-08-31 16:28:00,
2013-08-31 09:33:00,79.9,62.3,29.88,East,86,0.0,0.0,55,0.00,,,0.00,Wunderground v.1.15,2013-08-31 16:33:00,
2013-08-31 09:38:00,80.5,61.8,29.88,ESE,108,0.0,0.0,53,0.00,,,0.00,Wunderground v.1.15,2013-08-31 16:38:00,
2013-08-31 09:43:00,80.9,61.6,29.88,ESE,103,0.0,0.0,52,0.00,,,0.00,Wunderground v.1.15,2013-08-31 16:43:00,
2013-08-31 09:48:00,81.1,61.8,29.88,ENE,65,0.0,0.0,52,0.00,,,0.00,Wunderground v.1.15,2013-08-31 16:48:00,
2013-08-31 09:53:00,80.3,61.6,29.88,NNE,30,0.0,0.0,53,0.00,,,0.00,Wunderground v.1.15,2013-08-31 16:53:00,
2013-08-31 09:58:00,79.6,61.5,29.88,NNE,30,0.0,0.0,54,0.00,,,0.00,Wunderground v.1.15,2013-08-31 16:58:00,
2013-08-31 10:03:00,79.2,61.1,29.88,NNE,30,0.0,0.0,54,0.00,,,0.00,Wunderground v.1.15,2013-08-31 17:03:00,
2013-08-31 10:08:00,79.4,61.3,29.88,NNE,30,0.0,0.0,54,0.00,,,0.00,Wunderground v.1.15,2013-08-31 17:08:00,
2013-08-31 10:13:00,79.4,60.8,29.88,WNW,294,0.0,0.0,53,0.00,,,0.00,Wunderground v.1.15,2013-08-31 17:13:00,
2013-08-31 10:18:00,78.6,60.6,29.88,WNW,294,0.0,0.0,54,0.00,,,0.00,Wunderground v.1.15,2013-08-31 17:18:00,
2013-08-31 10:23:00,78.6,59.5,29.88,WNW,294,0.0,0.0,52,0.00,,,0.00,Wunderground v.1.15,2013-08-31 17:23:00,
2013-08-31 10:28:00,78.6,60.6,29.88,West,266,0.0,0.0,54,0.00,,,0.00,Wunderground v.1.15,2013-08-31 17:28:00,
2013-08-31 10:33:00,78.1,60.6,29.88,West,266,0.0,0.0,55,0.00,,,0.00,Wunderground v.1.15,2013-08-31 17:33:00,
2013-08-31 10:38:00,78.3,60.8,29.88,West,266,0.0,0.0,55,0.00,,,0.00,Wunderground v.1.15,2013-08-31 17:38:00,
2013-08-31 10:43:00,79.0,60.9,29.88,NW,311,0.0,0.0,54,0.00,,,0.00,Wunderground v.1.15,2013-08-31 17:43:00,
2013-08-31 10:49:00,79.9,60.2,29.88,North,356,0.0,0.0,51,0.00,,,0.00,Wunderground v.1.15,2013-08-31 17:49:00,
2013-08-31 10:54:00,80.3,59.4,29.88,North,356,0.0,0.0,49,0.00,,,0.00,Wunderground v.1.15,2013-08-31 17:54:00,
2013-08-31 10:59:00,81.1,61.3,29.88,North,356,0.0,0.0,51,0.00,,,0.00,Wunderground v.1.15,2013-08-31 17:59:00,
2013-08-31 11:04:00,80.9,61.1,29.88,North,356,0.0,0.0,51,0.00,,,0.00,Wunderground v.1.15,2013-08-31 18:04:00,
2013-08-31 11:09:00,80.5,60.7,29.88,West,271,0.0,5.0,51,0.00,,,0.00,Wunderground v.1.15,2013-08-31 18:09:00,
2013-08-31 11:14:00,80.5,60.1,29.88,NW,314,0.0,2.0,50,0.00,,,0.00,Wunderground v.1.15,2013-08-31 18:14:00,
2013-08-31 11:19:00,80.1,60.3,29.88,NNW,334,0.0,2.0,51,0.00,,,0.00,Wunderground v.1.15,2013-08-31 18:19:00,
2013-08-31 11:24:00,80.3,60.0,29.88,NW,311,0.0,1.0,50,0.00,,,0.00,Wunderground v.1.15,2013-08-31 18:24:00,
2013-08-31 11:29:00,80.5,60.1,29.88,NW,311,0.0,1.0,50,0.00,,,0.00,Wunderground v.1.15,2013-08-31 18:29:00,
2013-08-31 11:34:00,80.9,59.9,29.88,NNW,340,0.0,1.0,49,0.00,,,0.00,Wunderground v.1.15,2013-08-31 18:34:00,
2013-08-31 11:39:00,81.2,59.6,29.88,NW,315,0.0,1.0,48,0.00,,,0.00,Wunderground v.1.15,2013-08-31 18:39:00,
2013-08-31 11:44:00,81.4,60.4,29.88,NW,315,0.0,0.0,49,0.00,,,0.00,Wunderground v.1.15,2013-08-31 18:44:00,
2013-08-31 11:49:00,81.8,60.2,29.88,WNW,288,0.0,3.0,48,0.00,,,0.00,Wunderground v.1.15,2013-08-31 18:49:00,
2013-08-31 11:54:00,82.6,59.7,29.88,WNW,288,0.0,0.0,46,0.00,,,0.00,Wunderground v.1.15,2013-08-31 18:54:00,
2013-08-31 11:59:00,83.4,60.4,29.88,WNW,283,0.0,0.0,46,0.00,,,0.00,Wunderground v.1.15,2013-08-31 18:59:00,
2013-08-31 12:04:00,83.2,59.0,29.87,NNW,342,0.0,3.0,44,0.00,,,0.00,Wunderground v.1.15,2013-08-31 19:04:00,
2013-08-31 12:09:00,83.2,59.6,29.87,East,90,0.0,3.0,45,0.00,,,0.00,Wunderground v.1.15,2013-08-31 19:09:00,
2013-08-31 12:14:00,83.4,59.2,29.87,ENE,61,0.0,0.0,44,0.00,,,0.00,Wunderground v.1.15,2013-08-31 19:14:00,
2013-08-31 12:19:00,83.4,59.2,29.87,SSW,193,0.0,0.0,44,0.00,,,0.00,Wunderground v.1.15,2013-08-31 19:19:00,
2013-08-31 12:24:00,82.8,58.7,29.87,West,280,0.0,5.0,44,0.00,,,0.00,Wunderground v.1.15,2013-08-31 19:24:00,
2013-08-31 12:29:00,83.0,60.1,29.87,WNW,300,0.0,5.0,46,0.00,,,0.00,Wunderground v.1.15,2013-08-31 19:29:00,
2013-08-31 12:34:00,83.6,60.0,29.88,SSE,167,0.0,1.0,45,0.00,,,0.00,Wunderground v.1.15,2013-08-31 19:34:00,
2013-08-31 12:39:00,83.8,60.2,29.88,SW,229,0.0,2.0,45,0.00,,,0.00,Wunderground v.1.15,2013-08-31 19:39:00,
2013-08-31 12:44:00,84.0,60.4,29.88,SSW,197,0.0,0.0,45,0.00,,,0.00,Wunderground v.1.15,2013-08-31 19:44:00,
2013-08-31 12:49:00,83.4,60.4,29.87,West,270,0.0,3.0,46,0.00,,,0.00,Wunderground v.1.15,2013-08-31 19:49:00,
2013-08-31 12:54:00,82.8,59.3,29.87,NNW,344,0.0,1.0,45,0.00,,,0.00,Wunderground v.1.15,2013-08-31 19:54:00,
2013-08-31 12:59:00,82.4,58.9,29.87,NW,322,0.0,6.0,45,0.00,,,0.00,Wunderground v.1.15,2013-08-31 19:59:00,
2013-08-31 13:04:00,82.2,58.7,29.87,NW,321,0.0,2.0,45,0.00,,,0.00,Wunderground v.1.15,2013-08-31 20:04:00,
2013-08-31 13:09:00,82.2,58.7,29.87,West,271,0.0,3.0,45,0.00,,,0.00,Wunderground v.1.15,2013-08-31 20:09:00,
2013-08-31 13:14:00,82.6,59.1,29.87,WNW,284,0.0,2.0,45,0.00,,,0.00,Wunderground v.1.15,2013-08-31 20:14:00,
2013-08-31 13:19:00,82.8,59.3,29.87,SSE,158,0.0,2.0,45,0.00,,,0.00,Wunderground v.1.15,2013-08-31 20:19:00,
2013-08-31 13:24:00,83.8,59.6,29.87,SE,139,0.0,2.0,44,0.00,,,0.00,Wunderground v.1.15,2013-08-31 20:24:00,
2013-08-31 13:29:00,84.5,59.5,29.87,SSE,165,0.0,2.0,43,0.00,,,0.00,Wunderground v.1.15,2013-08-31 20:29:00,
2013-08-31 13:35:00,84.7,59.7,29.87,WSW,257,4.0,5.0,43,0.00,,,0.00,Wunderground v.1.15,2013-08-31 20:35:00,
2013-08-31 13:40:00,84.0,60.4,29.87,WNW,303,1.0,7.0,45,0.00,,,0.00,Wunderground v.1.15,2013-08-31 20:40:00,
2013-08-31 13:45:00,83.4,59.2,29.86,WNW,294,1.0,5.0,44,0.00,,,0.00,Wunderground v.1.15,2013-08-31 20:45:00,
2013-08-31 13:50:00,83.4,57.9,29.86,NNE,17,0.0,5.0,42,0.00,,,0.00,Wunderground v.1.15,2013-08-31 20:50:00,
2013-08-31 13:55:00,83.8,58.3,29.86,WNW,292,0.0,3.0,42,0.00,,,0.00,Wunderground v.1.15,2013-08-31 20:55:00,
2013-08-31 14:00:00,83.6,58.1,29.86,West,274,0.0,3.0,42,0.00,,,0.00,Wunderground v.1.15,2013-08-31 21:00:00,
2013-08-31 14:05:00,82.6,58.5,29.86,WNW,300,2.0,4.0,44,0.00,,,0.00,Wunderground v.1.15,2013-08-31 21:05:00,
2013-08-31 14:10:00,82.4,57.7,29.86,SSE,167,0.0,4.0,43,0.00,,,0.00,Wunderground v.1.15,2013-08-31 21:10:00,
2013-08-31 14:15:00,82.6,56.5,29.86,East,80,0.0,1.0,41,0.00,,,0.00,Wunderground v.1.15,2013-08-31 21:15:00,
2013-08-31 14:20:00,82.6,57.2,29.86,North,1,0.0,1.0,42,0.00,,,0.00,Wunderground v.1.15,2013-08-31 21:20:00,
2013-08-31 14:25:00,82.6,56.5,29.86,WNW,293,3.0,5.0,41,0.00,,,0.00,Wunderground v.1.15,2013-08-31 21:25:00,
2013-08-31 14:30:00,81.8,56.5,29.86,SW,220,0.0,5.0,42,0.00,,,0.00,Wunderground v.1.15,2013-08-31 21:30:00,
2013-08-31 14:35:00,81.2,55.9,29.86,North,352,0.0,4.0,42,0.00,,,0.00,Wunderground v.1.15,2013-08-31 21:35:00,
2013-08-31 14:40:00,80.9,55.7,29.86,NW,309,1.0,4.0,42,0.00,,,0.00,Wunderground v.1.15,2013-08-31 21:40:00,
2013-08-31 14:45:00,80.5,55.9,29.85,NNW,331,0.0,3.0,43,0.00,,,0.00,Wunderground v.1.15,2013-08-31 21:45:00,
2013-08-31 14:50:00,80.9,55.7,29.85,West,274,0.0,4.0,42,0.00,,,0.00,Wunderground v.1.15,2013-08-31 21:50:00,
2013-08-31 14:55:00,81.1,55.8,29.85,NW,309,0.0,2.0,42,0.00,,,0.00,Wunderground v.1.15,2013-08-31 21:55:00,
2013-08-31 15:00:00,80.9,52.9,29.85,West,276,3.0,4.0,38,0.00,,,0.00,Wunderground v.1.15,2013-08-31 22:00:00,
2013-08-31 15:05:00,80.3,52.4,29.85,NNW,333,0.0,4.0,38,0.00,,,0.00,Wunderground v.1.15,2013-08-31 22:05:00,
2013-08-31 15:10:00,80.9,52.2,29.85,WNW,286,0.0,4.0,37,0.00,,,0.00,Wunderground v.1.15,2013-08-31 22:10:00,
2013-08-31 15:15:00,81.6,52.8,29.84,NNW,348,0.0,4.0,37,0.00,,,0.00,Wunderground v.1.15,2013-08-31 22:15:00,
2013-08-31 15:20:00,82.4,54.2,29.84,WNW,290,0.0,0.0,38,0.00,,,0.00,Wunderground v.1.15,2013-08-31 22:20:00,
2013-08-31 15:25:00,83.4,55.1,29.84,West,265,0.0,2.0,38,0.00,,,0.00,Wunderground v.1.15,2013-08-31 22:25:00,
2013-08-31 15:30:00,84.5,53.8,29.84,WNW,285,0.0,0.0,35,0.00,,,0.00,Wunderground v.1.15,2013-08-31 22:30:00,
2013-08-31 15:35:00,84.1,53.5,29.84,South,169,0.0,3.0,35,0.00,,,0.00,Wunderground v.1.15,2013-08-31 22:35:00,
2013-08-31 15:40:00,83.4,54.4,29.84,SSW,198,0.0,0.0,37,0.00,,,0.00,Wunderground v.1.15,2013-08-31 22:40:00,
2013-08-31 15:45:00,82.6,54.4,29.83,NNW,347,0.0,0.0,38,0.00,,,0.00,Wunderground v.1.15,2013-08-31 22:45:00,
2013-08-31 15:50:00,82.0,55.3,29.83,NNW,333,0.0,0.0,40,0.00,,,0.00,Wunderground v.1.15,2013-08-31 22:50:00,
2013-08-31 15:55:00,81.8,55.1,29.83,WNW,282,0.0,2.0,40,0.00,,,0.00,Wunderground v.1.15,2013-08-31 22:55:00,
2013-08-31 16:00:00,81.2,53.9,29.83,WNW,290,0.0,0.0,39,0.00,,,0.00,Wunderground v.1.15,2013-08-31 23:00:00,
2013-08-31 16:05:00,81.1,55.2,29.83,NNW,328,0.0,3.0,41,0.00,,,0.00,Wunderground v.1.15,2013-08-31 23:05:00,
2013-08-31 16:10:00,81.4,53.4,29.83,NNW,342,0.0,0.0,38,0.00,,,0.00,Wunderground v.1.15,2013-08-31 23:10:00,
2013-08-31 16:15:00,82.0,53.2,29.83,NNW,339,0.0,0.0,37,0.00,,,0.00,Wunderground v.1.15,2013-08-31 23:15:00,
2013-08-31 16:20:00,82.4,52.8,29.83,SE,134,0.0,0.0,36,0.00,,,0.00,Wunderground v.1.15,2013-08-31 23:20:00,
2013-08-31 16:25:00,82.8,52.3,29.83,South,179,0.0,0.0,35,0.00,,,0.00,Wunderground v.1.15,2013-08-31 23:25:00,
2013-08-31 16:30:00,82.6,54.4,29.83,SW,236,0.0,0.0,38,0.00,,,0.00,Wunderground v.1.15,2013-08-31 23:30:00,
2013-08-31 16:35:00,82.4,55.0,29.83,NNE,19,0.0,1.0,39,0.00,,,0.00,Wunderground v.1.15,2013-08-31 23:35:00,
2013-08-31 16:40:00,82.2,54.8,29.83,NNE,19,0.0,0.0,39,0.00,,,0.00,Wunderground v.1.15,2013-08-31 23:40:00,
2013-08-31 16:46:00,82.2,56.8,29.82,NNE,26,0.0,0.0,42,0.00,,,0.00,Wunderground v.1.15,2013-08-31 23:46:00,
2013-08-31 16:51:00,82.2,57.5,29.82,West,273,0.0,0.0,43,0.00,,,0.00,Wunderground v.1.15,2013-08-31 23:51:00,
2013-08-31 16:56:00,81.2,57.8,29.82,WNW,303,0.0,2.0,45,0.00,,,0.00,Wunderground v.1.15,2013-08-31 23:56:00,
2013-08-31 17:01:00,80.5,58.4,29.82,WNW,298,0.0,2.0,47,0.00,,,0.00,Wunderground v.1.15,2013-09-01 00:01:00,
2013-08-31 17:06:00,79.8,58.4,29.82,WNW,290,0.0,2.0,48,0.00,,,0.00,Wunderground v.1.15,2013-09-01 00:06:00,
2013-08-31 17:11:00,79.2,57.8,29.82,WNW,290,0.0,2.0,48,0.00,,,0.00,Wunderground v.1.15,2013-09-01 00:11:00,
2013-08-31 17:16:00,78.5,57.7,29.82,NW,305,0.0,4.0,49,0.00,,,0.00,Wunderground v.1.15,2013-09-01 00:16:00,
2013-08-31 17:21:00,77.9,57.2,29.82,North,356,0.0,2.0,49,0.00,,,0.00,Wunderground v.1.15,2013-09-01 00:21:00,
2013-08-31 17:26:00,77.6,59.1,29.82,West,259,0.0,2.0,53,0.00,,,0.00,Wunderground v.1.15,2013-09-01 00:26:00,
2013-08-31 17:31:00,76.8,58.9,29.82,WNW,285,0.0,1.0,54,0.00,,,0.00,Wunderground v.1.15,2013-09-01 00:31:00,
2013-08-31 17:36:00,76.1,58.8,29.82,NW,321,0.0,3.0,55,0.00,,,0.00,Wunderground v.1.15,2013-09-01 00:36:00,
2013-08-31 17:41:00,75.8,58.0,29.82,WNW,297,0.0,1.0,54,0.00,,,0.00,Wunderground v.1.15,2013-09-01 00:41:00,
2013-08-31 17:46:00,76.0,58.7,29.82,WNW,297,0.0,1.0,55,0.00,,,0.00,Wunderground v.1.15,2013-09-01 00:46:00,
2013-08-31 17:51:00,76.0,58.2,29.82,WNW,297,0.0,0.0,54,0.00,,,0.00,Wunderground v.1.15,2013-09-01 00:51:00,
2013-08-31 17:56:00,76.0,58.2,29.82,WNW,297,0.0,0.0,54,0.00,,,0.00,Wunderground v.1.15,2013-09-01 00:56:00,
2013-08-31 18:01:00,76.0,57.6,29.82,WNW,297,0.0,0.0,53,0.00,,,0.00,Wunderground v.1.15,2013-09-01 01:01:00,
2013-08-31 18:06:00,76.0,58.2,29.82,WNW,297,0.0,0.0,54,0.00,,,0.00,Wunderground v.1.15,2013-09-01 01:06:00,
2013-08-31 18:11:00,76.1,58.2,29.82,WNW,297,0.0,0.0,54,0.00,,,0.00,Wunderground v.1.15,2013-09-01 01:11:00,
2013-08-31 18:16:00,76.3,57.9,29.82,WNW,297,0.0,0.0,53,0.00,,,0.00,Wunderground v.1.15,2013-09-01 01:16:00,
2013-08-31 18:21:00,76.1,57.2,29.82,WNW,297,0.0,0.0,52,0.00,,,0.00,Wunderground v.1.15,2013-09-01 01:21:00,
2013-08-31 18:26:00,76.0,57.1,29.82,WNW,297,0.0,0.0,52,0.00,,,0.00,Wunderground v.1.15,2013-09-01 01:26:00,
2013-08-31 18:31:00,75.6,57.3,29.82,NW,305,0.0,0.0,53,0.00,,,0.00,Wunderground v.1.15,2013-09-01 01:31:00,
2013-08-31 18:36:00,75.4,57.1,29.82,NW,305,0.0,0.0,53,0.00,,,0.00,Wunderground v.1.15,2013-09-01 01:36:00,
2013-08-31 18:41:00,75.4,57.1,29.82,NW,305,0.0,0.0,53,0.00,,,0.00,Wunderground v.1.15,2013-09-01 01:41:00,
2013-08-31 18:46:00,75.1,57.3,29.82,NW,305,0.0,0.0,54,0.00,,,0.00,Wunderground v.1.15,2013-09-01 01:46:00,
2013-08-31 18:51:00,74.9,57.1,29.82,NW,305,0.0,0.0,54,0.00,,,0.00,Wunderground v.1.15,2013-09-01 01:51:00,
2013-08-31 18:56:00,74.9,57.6,29.82,NW,305,0.0,0.0,55,0.00,,,0.00,Wunderground v.1.15,2013-09-01 01:56:00,
2013-08-31 19:01:00,74.7,58.0,29.82,NW,305,0.0,0.0,56,0.00,,,0.00,Wunderground v.1.15,2013-09-01 02:01:00,
2013-08-31 19:06:00,74.6,58.4,29.82,NW,305,0.0,0.0,57,0.00,,,0.00,Wunderground v.1.15,2013-09-01 02:06:00,
2013-08-31 19:11:00,74.4,58.2,29.82,NW,305,0.0,0.0,57,0.00,,,0.00,Wunderground v.1.15,2013-09-01 02:11:00,
2013-08-31 19:16:00,74.2,58.0,29.82,NW,305,0.0,0.0,57,0.00,,,0.00,Wunderground v.1.15,2013-09-01 02:16:00,
2013-08-31 19:21:00,74.0,57.8,29.82,NW,305,0.0,0.0,57,0.00,,,0.00,Wunderground v.1.15,2013-09-01 02:21:00,
2013-08-31 19:26:00,73.7,57.5,29.82,NW,305,0.0,0.0,57,0.00,,,0.00,Wunderground v.1.15,2013-09-01 02:26:00,
2013-08-31 19:31:00,73.3,57.1,29.82,NW,305,0.0,0.0,57,0.00,,,0.00,Wunderground v.1.15,2013-09-01 02:31:00,
2013-08-31 19:36:00,73.2,57.1,29.82,NW,305,0.0,0.0,57,0.00,,,0.00,Wunderground v.1.15,2013-09-01 02:36:00,
2013-08-31 19:41:00,73.0,57.3,29.82,NW,305,0.0,0.0,58,0.00,,,0.00,Wunderground v.1.15,2013-09-01 02:41:00,
2013-08-31 19:46:00,72.7,56.6,29.82,NW,305,0.0,0.0,57,0.00,,,0.00,Wunderground v.1.15,2013-09-01 02:46:00,
2013-08-31 19:51:00,72.5,56.4,29.82,NW,305,0.0,0.0,57,0.00,,,0.00,Wunderground v.1.15,2013-09-01 02:51:00,
2013-08-31 19:57:00,72.3,55.7,29.82,NW,305,0.0,0.0,56,0.00,,,0.00,Wunderground v.1.15,2013-09-01 02:57:00,
2013-08-31 20:02:00,72.1,55.5,29.82,NW,305,0.0,0.0,56,0.00,,,0.00,Wunderground v.1.15,2013-09-01 03:02:00,
2013-08-31 20:07:00,72.0,55.4,29.82,NW,305,0.0,0.0,56,0.00,,,0.00,Wunderground v.1.15,2013-09-01 03:07:00,
2013-08-31 20:12:00,71.8,55.7,29.82,NW,305,0.0,0.0,57,0.00,,,0.00,Wunderground v.1.15,2013-09-01 03:12:00,
2013-08-31 20:17:00,71.6,55.6,29.82,NW,305,0.0,0.0,57,0.00,,,0.00,Wunderground v.1.15,2013-09-01 03:17:00,
2013-08-31 20:22:00,71.5,55.9,29.82,NW,305,0.0,0.0,58,0.00,,,0.00,Wunderground v.1.15,2013-09-01 03:22:00,
2013-08-31 20:27:00,71.3,55.3,29.82,NW,305,0.0,0.0,57,0.00,,,0.00,Wunderground v.1.15,2013-09-01 03:27:00,
2013-08-31 20:32:00,71.1,55.6,29.83,NW,305,0.0,0.0,58,0.00,,,0.00,Wunderground v.1.15,2013-09-01 03:32:00,
2013-08-31 20:37:00,70.8,55.3,29.83,NW,305,0.0,0.0,58,0.00,,,0.00,Wunderground v.1.15,2013-09-01 03:37:00,
2013-08-31 20:42:00,70.8,55.3,29.83,NW,305,0.0,0.0,58,0.00,,,0.00,Wunderground v.1.15,2013-09-01 03:42:00,
2013-08-31 20:47:00,70.4,55.4,29.83,NW,305,0.0,0.0,59,0.00,,,0.00,Wunderground v.1.15,2013-09-01 03:47:00,
2013-08-31 20:52:00,70.3,55.3,29.83,NW,305,0.0,0.0,59,0.00,,,0.00,Wunderground v.1.15,2013-09-01 03:52:00,
2013-08-31 20:57:00,70.1,55.6,29.83,NW,305,0.0,0.0,60,0.00,,,0.00,Wunderground v.1.15,2013-09-01 03:57:00,
2013-08-31 21:01:00,70.1,55.6,29.83,NW,305,0.0,0.0,60,0.00,,,0.00,Wunderground v.1.15,2013-09-01 04:01:00,
2013-08-31 21:02:00,69.9,55.4,29.83,NW,305,0.0,0.0,60,0.00,,,0.00,Wunderground v.1.15,2013-09-01 04:02:00,
2013-08-31 21:07:00,69.9,55.4,29.83,NW,305,0.0,0.0,60,0.00,,,0.00,Wunderground v.1.15,2013-09-01 04:07:00,
2013-08-31 21:12:00,69.8,55.7,29.83,NW,305,0.0,0.0,61,0.00,,,0.00,Wunderground v.1.15,2013-09-01 04:12:00,
2013-08-31 21:17:00,69.6,55.6,29.83,NW,305,0.0,0.0,61,0.00,,,0.00,Wunderground v.1.15,2013-09-01 04:17:00,
2013-08-31 21:22:00,69.4,55.4,29.83,NW,305,0.0,0.0,61,0.00,,,0.00,Wunderground v.1.15,2013-09-01 04:22:00,
2013-08-31 21:27:00,69.3,54.8,29.83,NW,305,0.0,0.0,60,0.00,,,0.00,Wunderground v.1.15,2013-09-01 04:27:00,
2013-08-31 21:32:00,69.1,54.6,29.84,NW,305,0.0,0.0,60,0.00,,,0.00,Wunderground v.1.15,2013-09-01 04:32:00,
2013-08-31 21:37:00,69.1,54.6,29.84,NW,305,0.0,0.0,60,0.00,,,0.00,Wunderground v.1.15,2013-09-01 04:37:00,
2013-08-31 21:42:00,68.9,54.9,29.84,NW,305,0.0,0.0,61,0.00,,,0.00,Wunderground v.1.15,2013-09-01 04:42:00,
2013-08-31 21:47:00,68.9,54.9,29.85,NW,305,0.0,0.0,61,0.00,,,0.00,Wunderground v.1.15,2013-09-01 04:47:00,
2013-08-31 21:52:00,68.6,54.6,29.85,NW,305,0.0,0.0,61,0.00,,,0.00,Wunderground v.1.15,2013-09-01 04:52:00,
2013-08-31 21:57:00,68.6,54.2,29.85,NW,305,0.0,0.0,60,0.00,,,0.00,Wunderground v.1.15,2013-09-01 04:57:00,
2013-08-31 22:02:00,68.6,54.2,29.85,NW,305,0.0,0.0,60,0.00,,,0.00,Wunderground v.1.15,2013-09-01 05:02:00,
2013-08-31 22:07:00,68.4,54.0,29.85,NW,305,0.0,0.0,60,0.00,,,0.00,Wunderground v.1.15,2013-09-01 05:07:00,
2013-08-31 22:12:00,68.4,54.0,29.85,NW,305,0.0,0.0,60,0.00,,,0.00,Wunderground v.1.15,2013-09-01 05:12:00,
2013-08-31 22:17:00,68.3,53.9,29.85,NW,305,0.0,0.0,60,0.00,,,0.00,Wunderground v.1.15,2013-09-01 05:17:00,
2013-08-31 22:22:00,68.3,54.3,29.85,NW,305,0.0,0.0,61,0.00,,,0.00,Wunderground v.1.15,2013-09-01 05:22:00,
2013-08-31 22:27:00,68.3,54.3,29.85,NW,305,0.0,0.0,61,0.00,,,0.00,Wunderground v.1.15,2013-09-01 05:27:00,
2013-08-31 22:32:00,68.3,54.8,29.85,NW,305,0.0,0.0,62,0.00,,,0.00,Wunderground v.1.15,2013-09-01 05:32:00,
2013-08-31 22:37:00,68.1,54.6,29.85,NW,305,0.0,0.0,62,0.00,,,0.00,Wunderground v.1.15,2013-09-01 05:37:00,
2013-08-31 22:42:00,67.9,54.4,29.85,NW,305,0.0,0.0,62,0.00,,,0.00,Wunderground v.1.15,2013-09-01 05:42:00,
2013-08-31 22:47:00,67.9,54.8,29.85,NW,305,0.0,0.0,63,0.00,,,0.00,Wunderground v.1.15,2013-09-01 05:47:00,
2013-08-31 22:52:00,67.8,54.7,29.85,NW,305,0.0,0.0,63,0.00,,,0.00,Wunderground v.1.15,2013-09-01 05:52:00,
2013-08-31 22:57:00,67.6,54.6,29.85,NW,305,0.0,0.0,63,0.00,,,0.00,Wunderground v.1.15,2013-09-01 05:57:00,
2013-08-31 23:02:00,67.4,54.4,29.85,NW,305,0.0,0.0,63,0.00,,,0.00,Wunderground v.1.15,2013-09-01 06:02:00,
2013-08-31 23:07:00,67.3,54.7,29.85,NW,305,0.0,0.0,64,0.00,,,0.00,Wunderground v.1.15,2013-09-01 06:07:00,
2013-08-31 23:12:00,67.1,54.5,29.85,NW,305,0.0,0.0,64,0.00,,,0.00,Wunderground v.1.15,2013-09-01 06:12:00,
2013-08-31 23:17:00,66.9,54.7,29.85,NW,305,0.0,0.0,65,0.00,,,0.00,Wunderground v.1.15,2013-09-01 06:17:00,
2013-08-31 23:22:00,66.8,54.7,29.85,NW,305,0.0,0.0,65,0.00,,,0.00,Wunderground v.1.15,2013-09-01 06:22:00,
2013-08-31 23:27:00,66.6,54.5,29.85,NW,305,0.0,0.0,65,0.00,,,0.00,Wunderground v.1.15,2013-09-01 06:27:00,
2013-08-31 23:32:00,66.4,54.3,29.85,NW,305,0.0,0.0,65,0.00,,,0.00,Wunderground v.1.15,2013-09-01 06:32:00,
2013-08-31 23:37:00,66.3,54.6,29.85,NW,305,0.0,0.0,66,0.00,,,0.00,Wunderground v.1.15,2013-09-01 06:37:00,
2013-08-31 23:42:00,66.1,54.4,29.85,NW,305,0.0,0.0,66,0.00,,,0.00,Wunderground v.1.15,2013-09-01 06:42:00,
2013-08-31 23:47:00,66.0,54.3,29.85,NW,305,0.0,0.0,66,0.00,,,0.00,Wunderground v.1.15,2013-09-01 06:47:00,
2013-08-31 23:52:00,65.8,54.5,29.85,NW,305,0.0,0.0,67,0.00,,,0.00,Wunderground v.1.15,2013-09-01 06:52:00,
2013-08-31 23:57:00,65.8,54.5,29.85,NW,305,0.0,0.0,67,0.00,,,0.00,Wunderground v.1.15,2013-09-01 06:57:00,